+ View the NASA Portal
+ Center for Near-Earth Object Studies
IMPORTANT:
The SSD Announcement email list is now available. Major changes are coming in the near future, including possible hostname and/or URL changes. To be notified of such changes, subscribe to this email list.
Please visit
this page
for more details.
Don't show this message again
JPL Small-Body Database Browser
Search:
[
help
]
117060 (2004 KD3)
Classification:
Outer Main-belt Asteroid
SPK-ID:
2117060
[
Ephemeris
|
Orbit Diagram
|
Orbital Elements
|
Mission Design
|
Physical Parameters
|
Discovery Circumstances
|
Close-Approach Data
]
[ show orbit diagram ]
Orbital Elements at Epoch 2458600.5 (2019-Apr-27.0) TDB
Reference:
JPL 13
(heliocentric ecliptic J2000)
Element
Value
Uncertainty (1-sigma)
Units
e
.02533683441755278
4.5207e-08
a
3.219121490129154
3.318e-08
au
q
3.137559141963766
1.4922e-07
au
i
8.946348504546979
6.7535e-06
deg
node
223.8486406923342
3.5719e-05
deg
peri
43.12820992595054
0.00014947
deg
M
179.9035958309642
0.00014629
deg
t
p
2457546.254341990855
(2016-Jun-06.75434199)
0.00085452
TDB
period
2109.621184225208
5.78
3.2616e-05
8.93e-08
d
yr
n
.1706467505597294
2.6383e-09
deg/d
Q
3.300683838294542
3.4021e-08
au
Orbit Determination Parameters
# obs. used (total)
405
data-arc span
8722 days (23.88 yr)
first obs. used
1995-12-22
last obs. used
2019-11-08
planetary ephem.
DE431
SB-pert. ephem.
SB431-N16
condition code
0
norm. resid. RMS
.58569
source
ORB
producer
Otto Matic
solution date
2019-Dec-04 10:59:37
Additional Information
Earth MOID
= 2.12886 au
Jupiter MOID
= 1.71101 au
T_jup
= 3.170
[ show covariance matrix ]
[
Ephemeris
|
Orbit Diagram
|
Orbital Elements
|
Mission Design
|
Physical Parameters
|
Discovery Circumstances
|
Close-Approach Data
]
Physical Parameter Table
Parameter
Symbol
Value
Units
Sigma
Reference
Notes
absolute magnitude
H
14.7
n/a
MPO325289
diameter
diameter
7.046
km
0.201
urn:nasa:pds:neowise_diameters_albedos::2.0[mainbelt] (http://adsabs.harvard.edu/abs/2011ApJ...741...68M)
geometric albedo
albedo
0.047
0.009
urn:nasa:pds:neowise_diameters_albedos::2.0[mainbelt] (http://adsabs.harvard.edu/abs/2011ApJ...741...68M)
117060 (2004 KD3)
Discovered 2004-May-16 by LINEAR at Socorro
Reference:
20051019/Numbers.arc
Last Updated:
2005-10-26
[ show close-approach data ]
Alternate Designations
2004 KD3
= 1995 YN18
[
Ephemeris
|
Orbit Diagram
|
Orbital Elements
|
Mission Design
|
Physical Parameters
|
Discovery Circumstances
|
Close-Approach Data
]
2019-Dec-15 21:43 UT
(server date/time)
Site Manager:
Ryan S. Park
Webmaster
:
Alan B. Chamberlin